Regional Weather Roundup
Issued by NWS

Home | Current Version | Previous Version | Graphics & Text | Print | Product List | Glossary On
Versions: 1 2 3 4 5 6 7 8 9 10 11 12 13 14 15 16 17 18 19 20 21 22 23 24 25 26 27 28 29 30 31 32 33 34 35 36 37 38 39 40 41 42 43 44 45 46 47 48 49 50
000
ASUS43 KFSD 240010
RWRSD

WEATHER ROUNDUP FOR SOUTH DAKOTA
NATIONAL WEATHER SERVICE SIOUX FALLS SD
700 PM CDT SAT MAY 23 2015

NOTE: "FAIR" INDICATES FEW OR NO CLOUDS BELOW 12,000 FEET WITH NO
SIGNIFICANT WEATHER AND/OR OBSTRUCTIONS TO VISIBILITY.


SDZ001>005-009-010-012>017-240100-
NORTHWEST AND NORTH CENTRAL SOUTH DAKOTA

CITY           SKY/WX    TMP DP  RH WIND       PRES   REMARKS
BUFFALO          N/A     58  47  66 E13       29.98F
FAITH            N/A     57  48  72 E12       30.06R
MOBRIDGE       CLOUDY    60  53  77 E10       30.06F
$$

SDZ012>016-024>037-041>051-057-063-072>074-240100-
SOUTHWEST AND SOUTH CENTRAL SOUTH DAKOTA

CITY           SKY/WX    TMP DP  RH WIND       PRES   REMARKS
RAPID CTY ARPT CLOUDY    58  50  75 E10       30.01F
PIERRE         CLOUDY    60  53  77 E8        30.04S
CUSTER         CLOUDY    48  45  89 NE8       30.04S FOG
ELLSWORTH AFB  CLOUDY    58  51  78 E7        30.01S
PHILIP         CLOUDY    59  54  83 E16       30.02F
PINE RIDGE     LGT RAIN  56  51  84 E14       29.99R
SPEARFISH      CLOUDY    55  50  82 E18       30.02S
WINNER         CLOUDY    60  53  77 SE12      30.04S
$$

SDZ004>011-016>023-039-040-240100-
NORTHEAST SOUTH DAKOTA

CITY           SKY/WX    TMP DP  RH WIND       PRES   REMARKS
ABERDEEN       CLOUDY    66  49  54 SE7       30.08F
WATERTOWN      CLOUDY    65  48  54 SE9       30.09F
BROOKINGS      CLOUDY    66  50  55 SE7       30.08F
SISSETON         N/A     68  49  50 S12       30.09F
$$

SDZ017-020-022-023-036>040-048>070-240100-
SOUTHEAST SOUTH DAKOTA

CITY           SKY/WX    TMP DP  RH WIND       PRES   REMARKS
SIOUX FALLS    CLOUDY    65  52  62 S8        30.06F
HURON          CLOUDY    64  53  67 S8        30.07F
CHAMBERLAIN    CLOUDY    59  54  84 SE10      30.05F
MITCHELL       CLOUDY    64  54  69 SE9       30.07F
YANKTON        CLOUDY    61  54  77 SE7       30.05F
$$

ABBREVIATIONS USED IN REMARKS
   TC - TEMPERATURE IN CELSIUS
  WCI - WIND CHILL INDEX
   HX - HEAT INDEX
  VSB - VISIBILITY



USA.gov is the U.S. government's official web portal to all federal, state and local government web resources and services.